When you browse on this site, cookies collect data to enhance your experience and personalize the content and advertising you see.
Visit our Privacy Policy to learn more. By continuing to use the site, you agree to this use of cookies and data.
  • In Lithuania
  • List of Countries
  • For 7 days
  • Water Temperature
  • Satellite Maps
  • Weather Map
  • Weather Widgets
  • user-avatar
    Login

    Hourly Weather Smaszew

    Today, 20 February, Wednesday

    Time Temperature Precipitation Wind Pressure Humidity
    00:00 +3°C° 0 mm 6 mps 750 mmHg 85%
    01:00 +3°C° 0 mm 6 mps 751 mmHg 86%
    02:00 +2°C° 0 mm 6 mps 751 mmHg 87%
    03:00 +2°C° 0 mm 6 mps 751 mmHg 89%
    04:00 +2°C° 0 mm 5 mps 751 mmHg 90%
    05:00 +2°C° 0 mm 6 mps 751 mmHg 89%
    06:00 +2°C° 0 mm 6 mps 751 mmHg 88%
    07:00 +2°C° 0 mm 6 mps 752 mmHg 87%
    08:00 +2°C° 0.1 mm 6 mps 752 mmHg 84%
    09:00 +3°C° 0.1 mm 6 mps 753 mmHg 81%
    10:00 +3°C° 0.1 mm 6 mps 753 mmHg 78%
    11:00 +3°C° 0 mm 6 mps 753 mmHg 76%
    12:00 +3°C° 0 mm 7 mps 754 mmHg 75%
    13:00 +4°C° 0 mm 7 mps 754 mmHg 73%
    14:00 +4°C° 0.1 mm 6 mps 754 mmHg 74%
    15:00 +4°C° 0.1 mm 6 mps 754 mmHg 75%
    16:00 +4°C° 0.1 mm 6 mps 754 mmHg 76%
    17:00 +5°C° 0.1 mm 5 mps 755 mmHg 78%
    18:00 +3°C° 0.1 mm 5 mps 755 mmHg 80%
    19:00 +4°C° 0.1 mm 4 mps 755 mmHg 82%
    20:00 +4°C° 0 mm 4 mps 756 mmHg 84%
    21:00 +4°C° 0 mm 3 mps 756 mmHg 85%
    22:00 +4°C° 0 mm 3 mps 756 mmHg 87%
    23:00 +4°C° 0 mm 3 mps 756 mmHg 87%

    Tomorrow, 21 February, Thursday

    Time Temperature Precipitation Wind Pressure Humidity
    00:00 +4°C° 0 mm 3 mps 756 mmHg 88%
    01:00 +4°C° 0 mm 3 mps 757 mmHg 88%
    02:00 +4°C° 0 mm 3 mps 756 mmHg 89%
    03:00 +3°C° 0 mm 4 mps 756 mmHg 90%
    04:00 +3°C° 0 mm 4 mps 756 mmHg 91%
    05:00 +3°C° 0.1 mm 4 mps 756 mmHg 89%
    06:00 +3°C° 0.1 mm 4 mps 756 mmHg 88%
    07:00 +2°C° 0.1 mm 5 mps 755 mmHg 86%
    08:00 +2°C° 0.6 mm 5 mps 755 mmHg 86%
    09:00 +3°C° 0.6 mm 6 mps 755 mmHg 85%
    10:00 +3°C° 0.6 mm 6 mps 755 mmHg 85%
    11:00 +3°C° 0.7 mm 7 mps 755 mmHg 85%
    12:00 +4°C° 0.7 mm 7 mps 754 mmHg 85%
    13:00 +4°C° 0.7 mm 7 mps 754 mmHg 85%
    14:00 +4°C° 0.5 mm 7 mps 754 mmHg 85%
    15:00 +4°C° 0.5 mm 7 mps 754 mmHg 86%
    16:00 +4°C° 0.5 mm 7 mps 753 mmHg 86%
    17:00 +4°C° 0.2 mm 7 mps 753 mmHg 87%
    18:00 +5°C° 0.2 mm 7 mps 753 mmHg 88%
    19:00 +5°C° 0.2 mm 7 mps 753 mmHg 89%
    20:00 +5°C° 0.1 mm 7 mps 753 mmHg 90%
    21:00 +5°C° 0.1 mm 7 mps 754 mmHg 90%
    22:00 +5°C° 0.1 mm 6 mps 754 mmHg 91%
    23:00 +5°C° 0.1 mm 7 mps 754 mmHg 90%

    Day after tomorrow, 22 February, Friday

    Time Temperature Precipitation Wind Pressure Humidity
    00:00 +5°C° 0.1 mm 7 mps 754 mmHg 89%
    01:00 +5°C° 0.1 mm 7 mps 754 mmHg 88%
    02:00 +4°C° 0.6 mm 7 mps 755 mmHg 87%
    03:00 +3°C° 0.6 mm 7 mps 755 mmHg 86%
    04:00 +2°C° 0.6 mm 7 mps 756 mmHg 85%
    05:00 0°C° 0 mm 7 mps 757 mmHg 82%
    06:00 -1°C° 0 mm 7 mps 758 mmHg 79%
    07:00 -2°C° 0 mm 6 mps 760 mmHg 76%
    08:00 -2°C° 0 mm 6 mps 761 mmHg 69%
    09:00 -2°C° 0 mm 6 mps 762 mmHg 62%
    10:00 -2°C° 0 mm 6 mps 763 mmHg 56%
    11:00 -1°C° 0 mm 5 mps 764 mmHg 54%
    12:00 -1°C° 0 mm 5 mps 764 mmHg 52%
    13:00 0°C° 0 mm 5 mps 765 mmHg 50%
    14:00 -1°C° 0 mm 5 mps 765 mmHg 48%
    15:00 -1°C° 0 mm 5 mps 766 mmHg 47%
    16:00 -1°C° 0 mm 5 mps 766 mmHg 46%
    17:00 -2°C° 0 mm 4 mps 767 mmHg 49%
    18:00 -3°C° 0 mm 4 mps 768 mmHg 52%
    19:00 -3°C° 0 mm 4 mps 768 mmHg 55%
    20:00 -4°C° 0 mm 4 mps 769 mmHg 53%
    21:00 -4°C° 0 mm 4 mps 769 mmHg 52%
    22:00 -4°C° 0 mm 4 mps 770 mmHg 51%
    23:00 -4°C° 0 mm 3 mps 770 mmHg 49%

    23 February, Saturday

    Time Temperature Precipitation Wind Pressure Humidity
    00:00 -4°C° 0 mm 3 mps 770 mmHg 47%
    01:00 -4°C° 0 mm 3 mps 771 mmHg 44%
    02:00 -3°C° 0 mm 2 mps 771 mmHg 43%
    03:00 -4°C° 0 mm 2 mps 770 mmHg 42%
    04:00 -2°C° 0 mm 1 mps 770 mmHg 41%
    05:00 -2°C° 0 mm 1 mps 771 mmHg 41%
    06:00 -2°C° 0 mm 1 mps 771 mmHg 41%
    07:00 -3°C° 0 mm 0 mps 771 mmHg 40%
    08:00 -1°C° 0 mm 1 mps 771 mmHg 37%
    09:00 0°C° 0 mm 1 mps 771 mmHg 33%
    10:00 0°C° 0 mm 1 mps 771 mmHg 30%
    11:00 +1°C° 0 mm 1 mps 771 mmHg 28%
    12:00 +1°C° 0 mm 2 mps 770 mmHg 27%
    13:00 +2°C° 0 mm 2 mps 770 mmHg 25%
    14:00 +2°C° 0 mm 2 mps 770 mmHg 28%
    15:00 +3°C° 0 mm 1 mps 770 mmHg 30%
    16:00 +3°C° 0 mm 1 mps 769 mmHg 33%
    17:00 +2°C° 0 mm 1 mps 769 mmHg 35%
    18:00 +2°C° 0 mm 1 mps 769 mmHg 38%
    19:00 +1°C° 0 mm 1 mps 769 mmHg 40%
    20:00 -1°C° 0 mm 2 mps 769 mmHg 42%
    21:00 -2°C° 0 mm 2 mps 769 mmHg 43%
    22:00 -2°C° 0 mm 2 mps 768 mmHg 44%
    23:00 -2°C° 0 mm 2 mps 768 mmHg 45%

    24 February, Sunday

    Time Temperature Precipitation Wind Pressure Humidity
    00:00 -2°C° 0 mm 2 mps 768 mmHg 45%
    01:00 -2°C° 0 mm 2 mps 768 mmHg 46%
    02:00 -2°C° 0 mm 2 mps 767 mmHg 46%
    03:00 -2°C° 0 mm 2 mps 767 mmHg 46%
    04:00 -2°C° 0 mm 2 mps 767 mmHg 46%
    05:00 -2°C° 0 mm 2 mps 767 mmHg 46%
    06:00 -2°C° 0 mm 2 mps 766 mmHg 46%
    07:00 -2°C° 0 mm 2 mps 766 mmHg 46%
    08:00 -1°C° 0 mm 2 mps 766 mmHg 43%
    09:00 +2°C° 0 mm 2 mps 766 mmHg 40%
    10:00 +2°C° 0 mm 3 mps 766 mmHg 36%
    11:00 +3°C° 0 mm 3 mps 766 mmHg 37%
    12:00 +4°C° 0 mm 3 mps 765 mmHg 37%
    13:00 +5°C° 0 mm 3 mps 765 mmHg 37%
    14:00 +5°C° 0 mm 3 mps 765 mmHg 41%
    15:00 +6°C° 0 mm 2 mps 765 mmHg 46%
    16:00 +5°C° 0 mm 2 mps 764 mmHg 50%
    17:00 +4°C° 0 mm 2 mps 764 mmHg 53%
    18:00 +3°C° 0 mm 2 mps 764 mmHg 56%
    19:00 +2°C° 0 mm 2 mps 764 mmHg 59%
    20:00 +2°C° 0 mm 2 mps 764 mmHg 59%
    21:00 +2°C° 0 mm 2 mps 764 mmHg 60%
    22:00 +2°C° 0 mm 2 mps 764 mmHg 61%
    23:00 +2°C° 0 mm 2 mps 764 mmHg 62%

    25 February, Monday

    Time Temperature Precipitation Wind Pressure Humidity
    00:00 +2°C° 0 mm 2 mps 764 mmHg 64%
    01:00 +2°C° 0 mm 2 mps 764 mmHg 65%
    02:00 +2°C° 0 mm 2 mps 764 mmHg 67%
    03:00 +2°C° 0 mm 2 mps 763 mmHg 69%
    04:00 +2°C° 0 mm 2 mps 763 mmHg 71%
    05:00 +2°C° 0 mm 2 mps 763 mmHg 72%
    06:00 0°C° 0 mm 3 mps 763 mmHg 73%
    07:00 0°C° 0 mm 3 mps 764 mmHg 74%
    08:00 +1°C° 0 mm 3 mps 764 mmHg 72%
    09:00 +2°C° 0 mm 3 mps 764 mmHg 70%
    10:00 +4°C° 0 mm 3 mps 764 mmHg 68%
    11:00 +5°C° 0 mm 3 mps 764 mmHg 68%
    12:00 +7°C° 0 mm 3 mps 764 mmHg 67%
    13:00 +8°C° 0 mm 3 mps 764 mmHg 67%
    14:00 +8°C° 0 mm 3 mps 764 mmHg 69%
    15:00 +8°C° 0 mm 3 mps 764 mmHg 71%
    16:00 +8°C° 0 mm 3 mps 764 mmHg 73%
    17:00 +7°C° 0 mm 3 mps 764 mmHg 78%
    18:00 +6°C° 0 mm 2 mps 764 mmHg 83%
    19:00 +5°C° 0 mm 2 mps 764 mmHg 89%
    20:00 +4°C° 0 mm 2 mps 764 mmHg 89%
    21:00 +4°C° 0 mm 2 mps 764 mmHg 89%
    22:00 +4°C° 0 mm 2 mps 764 mmHg 90%
    23:00 +3°C° 0 mm 2 mps 764 mmHg 90%
    Show more